Weather History for Stevens Point, WI

Change the Weather History Date:

Monday, February 18, 2013

  Actual Average Record
Temperature  
Mean Temperature 27 °F -  
Max Temperature 36 °F 30 °F 58 °F (1981)
Min Temperature 18 °F 14 °F -20 °F (2006)
Degree Days  
Heating Degree Days 38    
Moisture  
Dew Point 21 °F    
Average Humidity 77    
Maximum Humidity 100    
Minimum Humidity 65    
Precipitation  
Precipitation 0.01 in - - ()
Sea Level Pressure  
Sea Level Pressure 29.58 in    
Wind  
Wind Speed 8 mph (South)    
Max Wind Speed 15 mph    
Max Gust Speed 24 mph    
Visibility 9 miles    
Events Rain , Snow    
Averages and records for this station are not official NWS values.
T = Trace of Precipitation, MM = Missing Value Source: NWS Daily Summary

Daily Weather History Graph

Daily Weather History Graph

Search for Another Location

Airport:

Trip Planner

Search our weather history database for the weather conditions in past years. The results will help you decide how hot, cold, wet, or windy it might be!

Date:

Astronomy

Feb. 18, 2013 Rise Set
Actual Time 6:53 AM CST 5:31 PM CST
Civil Twilight 6:23 AM CST 6:01 PM CST
Nautical Twilight 5:49 AM CST 6:35 PM CST
Astronomical Twilight 5:15 AM CST 7:08 PM CST
Moon 11:10 AM CST (2/18) 1:39 AM CST (2/18)
Length of Visible Light 11h 37m
Length of Day
10h 38m
First Quarter, 58% of the Moon is Illuminated
Feb 18
First Quarter
Feb 25
Full
Mar 4
Last Quarter
Mar 11
New
Mar 19
First Quarter

Hourly Weather History & Observations

Time (CST) Temp. Windchill Dew Point Humidity Pressure Visibility Wind Dir Wind Speed Gust Speed Precip Events Conditions
12:15 AM 19.0 °F 8.2 °F 9.1 °F 65% 29.85 in 10.0 mi SE 9.2 mph - N/A   Mostly Cloudy
12:35 AM 18.5 °F 8.4 °F 9.0 °F 66% 29.84 in 10.0 mi SE 8.1 mph - N/A   Scattered Clouds
12:55 AM 18.5 °F 8.4 °F 9.3 °F 67% 29.84 in 10.0 mi SE 8.1 mph - N/A   Clear
1:15 AM 19.0 °F 7.5 °F 10.2 °F 69% 29.81 in 10.0 mi SE 10.4 mph - N/A   Clear
1:35 AM 20.1 °F 9.5 °F 11.3 °F 69% 29.80 in 10.0 mi SE 9.2 mph - N/A   Scattered Clouds
1:55 AM 19.4 °F 10.4 °F 11.3 °F 71% 29.78 in 10.0 mi SE 6.9 mph - N/A   Clear
2:15 AM 21.0 °F 9.9 °F 12.9 °F 71% 29.76 in 10.0 mi SE 10.4 mph - N/A   Clear
2:55 AM 23.7 °F 11.0 °F 15.4 °F 71% 29.73 in 10.0 mi SE 15.0 mph 19.6 mph N/A   Scattered Clouds
2:57 AM 24.8 °F 12.4 °F 15.8 °F 69% 29.73 in 10.0 mi SE 15.0 mph 20.7 mph N/A   Scattered Clouds
3:15 AM 23.9 °F 12.9 °F 15.6 °F 71% 29.72 in 10.0 mi SSE 11.5 mph 17.3 mph N/A   Clear
3:35 AM 23.7 °F 14.0 °F 15.8 °F 72% 29.71 in 10.0 mi SSE 9.2 mph 17.3 mph N/A   Clear
3:55 AM 23.7 °F 12.6 °F 15.8 °F 72% 29.70 in 10.0 mi SSE 11.5 mph 20.7 mph N/A   Clear
4:15 AM 23.0 °F 14.7 °F 15.3 °F 72% 29.69 in 10.0 mi SSE 6.9 mph 17.3 mph N/A   Clear
4:35 AM 22.5 °F 15.1 °F 14.9 °F 73% 29.69 in 10.0 mi SSE 5.8 mph - N/A   Clear
4:55 AM 21.7 °F 12.3 °F 14.7 °F 74% 29.68 in 10.0 mi SE 8.1 mph - N/A   Clear
5:15 AM 21.6 °F 15.3 °F 14.9 °F 76% 29.69 in 10.0 mi SE 4.6 mph - N/A   Clear
5:35 AM 21.2 °F 13.6 °F 14.9 °F 77% 29.67 in 10.0 mi SE 5.8 mph - N/A   Clear
5:55 AM 21.4 °F 13.8 °F 14.9 °F 76% 29.67 in 10.0 mi ESE 5.8 mph - N/A   Clear
6:15 AM 21.2 °F 13.6 °F 14.9 °F 77% 29.66 in 10.0 mi ESE 5.8 mph - N/A   Clear
6:35 AM 20.7 °F 14.2 °F 14.7 °F 78% 29.65 in 10.0 mi ESE 4.6 mph - N/A   Clear
6:55 AM 20.5 °F 14.0 °F 14.7 °F 78% 29.64 in 10.0 mi ESE 4.6 mph - N/A   Clear
7:15 AM 21.0 °F 13.4 °F 15.1 °F 78% 29.63 in 10.0 mi ESE 5.8 mph - N/A   Clear
7:35 AM 21.7 °F 13.2 °F 15.6 °F 77% 29.63 in 10.0 mi ESE 6.9 mph - N/A   Clear
7:55 AM 22.5 °F 14.1 °F 15.8 °F 76% 29.62 in 10.0 mi SE 6.9 mph - N/A   Clear
8:15 AM 23.0 °F 15.8 °F 16.3 °F 76% 29.63 in 10.0 mi SE 5.8 mph - N/A   Clear
8:35 AM 23.9 °F 18.0 °F 16.7 °F 74% 29.62 in 10.0 mi SSE 4.6 mph - N/A   Clear
8:55 AM 24.8 °F 16.1 °F 17.6 °F 74% 29.61 in 10.0 mi SSE 8.1 mph - N/A   Clear
9:15 AM 25.7 °F 17.1 °F 18.3 °F 74% 29.59 in 10.0 mi SE 8.1 mph - N/A   Clear
9:35 AM 26.8 °F 18.5 °F 19.4 °F 74% 29.59 in 10.0 mi South 8.1 mph - N/A   Clear
9:55 AM 27.5 °F 20.2 °F 19.9 °F 73% 29.58 in 10.0 mi SSE 6.9 mph - N/A   Clear
10:15 AM 28.6 °F 20.7 °F 20.3 °F 71% 29.57 in 10.0 mi SE 8.1 mph - N/A   Clear
10:35 AM 29.7 °F 22.0 °F 21.2 °F 71% 29.57 in 10.0 mi SE 8.1 mph - N/A   Clear
10:55 AM 30.6 °F 24.7 °F 21.7 °F 70% 29.57 in 10.0 mi SSE 5.8 mph - N/A   Clear
11:15 AM 31.3 °F 23.3 °F 22.1 °F 69% 29.56 in 10.0 mi SSE 9.2 mph - N/A   Clear
11:35 AM 32.0 °F 24.2 °F 22.8 °F 69% 29.55 in 10.0 mi SSE 9.2 mph - N/A   Clear
11:55 AM 33.4 °F 26.6 °F 23.9 °F 68% 29.55 in 10.0 mi South 8.1 mph - N/A   Clear
12:15 PM 34.7 °F 26.9 °F 24.6 °F 67% 29.53 in 10.0 mi South 10.4 mph - N/A   Clear
12:35 PM 35.4 °F 29.7 °F 25.2 °F 66% 29.52 in 10.0 mi South 6.9 mph - N/A   Clear
12:55 PM 35.6 °F 29.9 °F 25.5 °F 67% 29.51 in 10.0 mi South 6.9 mph - N/A   Clear
1:15 PM 35.6 °F 30.7 °F 25.5 °F 67% 29.49 in 10.0 mi South 5.8 mph - N/A   Clear
1:35 PM 36.0 °F 30.3 °F 25.7 °F 66% 29.49 in 10.0 mi SE 6.9 mph - N/A   Clear
1:55 PM 36.3 °F 30.8 °F 25.9 °F 66% 29.48 in 10.0 mi SSE 6.9 mph - N/A   Clear
2:15 PM 36.7 °F 30.5 °F 26.2 °F 66% 29.49 in 10.0 mi SE 8.1 mph - N/A   Clear
2:35 PM 36.7 °F 31.2 °F 26.4 °F 66% 29.48 in 10.0 mi SSE 6.9 mph - N/A   Mostly Cloudy
2:55 PM 36.9 °F 30.7 °F 26.8 °F 67% 29.49 in 10.0 mi SSE 8.1 mph - N/A   Overcast
3:15 PM 36.7 °F 30.5 °F 27.1 °F 68% 29.50 in 10.0 mi South 8.1 mph - N/A   Overcast
3:35 PM 36.3 °F 32.5 °F 27.5 °F 70% 29.49 in 10.0 mi SW 4.6 mph - N/A   Overcast
3:55 PM 36.7 °F 32.0 °F 27.1 °F 68% 29.48 in 10.0 mi SW 5.8 mph - N/A   Overcast
4:15 PM 36.7 °F 34.1 °F 27.1 °F 68% 29.48 in 10.0 mi West 3.5 mph - N/A   Overcast
4:35 PM 36.3 °F 32.5 °F 27.5 °F 70% 29.48 in 10.0 mi WSW 4.6 mph - N/A   Light Drizzle
4:55 PM 35.8 °F 30.1 °F 28.2 °F 74% 29.48 in 10.0 mi WSW 6.9 mph - N/A Rain Light Rain
5:15 PM 34.2 °F 29.0 °F 29.3 °F 82% 29.49 in 7.0 mi WSW 5.8 mph - N/A Rain Light Rain
5:35 PM 32.9 °F 25.9 °F 30.0 °F 89% 29.49 in 5.0 mi West 8.1 mph - N/A Rain Heavy Rain
6:15 PM 32.0 °F 27.5 °F 30.0 °F 92% 29.50 in 7.0 mi WNW 4.6 mph - N/A Rain Light Rain
6:35 PM 31.8 °F 28.5 °F 30.0 °F 93% 29.49 in 7.0 mi WNW 3.5 mph - N/A   Overcast
6:55 PM 31.6 °F 28.3 °F 30.0 °F 94% 29.49 in 7.0 mi WNW 3.5 mph - N/A   Overcast
7:18 PM 30.2 °F 25.4 °F 30.2 °F 100% 29.48 in 5.0 mi WNW 4.6 mph - N/A   Overcast
7:35 PM 31.5 °F 25.8 °F 29.8 °F 94% 29.48 in 5.0 mi NW 5.8 mph - N/A Snow Light Snow
7:55 PM 31.1 °F 25.4 °F 29.7 °F 94% 29.47 in 5.0 mi WNW 5.8 mph - N/A Snow Light Snow
8:15 PM 31.1 °F 23.7 °F 29.3 °F 93% 29.46 in 4.0 mi WNW 8.1 mph - N/A Snow Light Snow
8:35 PM 30.9 °F 22.2 °F 28.4 °F 90% 29.45 in 5.0 mi WNW 10.4 mph 17.3 mph N/A Snow Light Snow
8:55 PM 30.9 °F 22.2 °F 28.2 °F 90% 29.46 in 7.0 mi NW 10.4 mph - N/A   Overcast
9:15 PM 29.8 °F 21.5 °F 27.1 °F 90% 29.46 in 7.0 mi WNW 9.2 mph - N/A   Overcast
9:35 PM 29.3 °F 20.2 °F 26.6 °F 90% 29.45 in 7.0 mi WNW 10.4 mph 17.3 mph N/A   Overcast
9:55 PM 29.1 °F 19.4 °F 26.1 °F 88% 29.45 in 7.0 mi WNW 11.5 mph 16.1 mph N/A   Overcast
10:15 PM 28.8 °F 20.9 °F 25.7 °F 88% 29.45 in 10.0 mi WNW 8.1 mph - N/A   Overcast
10:35 PM 27.7 °F 16.6 °F 25.0 °F 90% 29.45 in 5.0 mi West 13.8 mph - N/A   Overcast
10:55 PM 25.3 °F 13.1 °F 23.2 °F 91% 29.46 in 1.8 mi West 15.0 mph 21.9 mph N/A   Overcast
11:15 PM 24.3 °F 13.3 °F 22.1 °F 91% 29.46 in 1.5 mi West 11.5 mph 23.0 mph N/A   Overcast
11:35 PM 23.0 °F 12.4 °F 21.0 °F 92% 29.47 in 1.8 mi West 10.4 mph 23.0 mph N/A   Overcast
11:55 PM 22.1 °F 12.0 °F 19.9 °F 91% 29.48 in 2.0 mi West 9.2 mph 24.2 mph 0.01 in   Overcast